This is the latest recevied weather packets stored in our database for station/object AD8PA-13. If no packets are shown the sender has not sent any weather packets the latest 10 day(s).
| Time | Temp. | Humidity | Pressure | Rain* | Wind** | Luminosity | Snow |
|---|---|---|---|---|---|---|---|
| 1777280727 | 5° C | 94% | 1020.8 hPa | 0 mm | - | - | - |
| 1777279822 | 5° C | 94% | 1020.5 hPa | 0 mm | - | - | - |
| 1777278921 | 4.44° C | 92% | 1020.7 hPa | 0 mm | - | - | - |
| 1777278015 | 5° C | 91% | 1020.5 hPa | 0 mm | - | - | - |
| 1777277109 | 5.56° C | 90% | 1020.5 hPa | 0 mm | - | - | - |
| 1777276209 | 6.11° C | 89% | 1020.5 hPa | 0 mm | - | - | - |
| 1777275308 | 6.67° C | 88% | 1020.2 hPa | 0 mm | - | - | - |
| 1777274407 | 6.67° C | 87% | 1020.6 hPa | 0 mm | - | - | - |
| 1777273502 | 6.67° C | 86% | 1020.8 hPa | 0 mm | - | - | - |
| 1777272600 | 6.67° C | 85% | 1020.8 hPa | 0 mm | - | - | - |
| 1777271695 | 7.22° C | 83% | 1021.1 hPa | 0 mm | - | - | - |
| 1777270796 | 7.22° C | 82% | 1021.1 hPa | 0 mm | - | - | - |
| 1777269893 | 7.22° C | 81% | 1021.2 hPa | 0 mm | - | - | - |
| 1777268990 | 7.78° C | 78% | 1021.1 hPa | 0 mm | - | - | - |
| 1777268087 | 8.33° C | 76% | 1021.5 hPa | 0 mm | - | - | - |
| 1777267183 | 8.33° C | 75% | 1021.4 hPa | 0 mm | - | - | - |
| 1777266279 | 8.33° C | 74% | 1021.6 hPa | 0 mm | - | - | - |
| 1777265378 | 8.33° C | 74% | 1021.6 hPa | 0 mm | - | - | - |
| 1777264475 | 8.89° C | 74% | 1021.4 hPa | 0 mm | - | - | - |
| 1777263571 | 8.33° C | 75% | 1021.8 hPa | 0 mm | - | - | - |
| 1777262667 | 8.89° C | 75% | 1021.5 hPa | 0 mm | - | - | - |
| 1777261762 | 8.89° C | 76% | 1021.6 hPa | 0 mm | - | - | - |
| 1777260861 | 9.44° C | 75% | 1021.7 hPa | 0 mm | - | - | - |
| 1777259960 | 10° C | 73% | 1021.5 hPa | 0 mm | - | - | - |
| 1777259057 | 10.56° C | 72% | 1021.7 hPa | 0 mm | - | - | - |
* Rain latest hour (hover to see other rain measurements)
** Current wind speed in m/s (hover to see current wind gust speed)